Regional Weather Roundup
Issued by NWS Little Rock, AR

Home | Current Version | Previous Version | Graphics & Text | Print | Product List | Glossary On
Versions: 1 2 3 4 5 6 7 8 9 10 11 12 13 14 15 16 17 18 19 20 21 22 23 24 25 26 27 28 29 30 31 32 33 34 35 36 37 38 39 40 41 42 43 44 45 46 47 48 49 50
000
ASUS44 KLZK 211505
RWRLZK

WEATHER ROUNDUP FOR ARKANSAS
NATIONAL WEATHER SERVICE LITTLE ROCK AR
900 AM CST SUN DEC 21 2014

NOTE: "FAIR" INDICATES FEW OR NO CLOUDS BELOW 12,000 FEET WITH NO
SIGNIFICANT WEATHER AND/OR OBSTRUCTIONS TO VISIBILITY.

ARZ001-003-010-029-211600-
NORTHWEST ARKANSAS

CITY           SKY/WX    TMP DP  RH WIND       PRES   REMARKS
FAYETTEVILLE   CLOUDY    41  39  93 SE6       30.10F
FORT SMITH     CLOUDY    44  39  82 E7        30.13F
HARRISON       CLOUDY    39  38  96 SE10      30.12F
BENTONVILLE    CLOUDY    43  37  81 SE10      30.09F
ROGERS         CLOUDY    41  39  93 SE8       30.10S
SILOAM SPGS    CLOUDY    43  36  75 S7        30.09F
HIGHFILL       CLOUDY    42  40  92 SE9       30.08F
SPRINGDALE     CLOUDY    41  39  93 SE6       30.11F FOG
$$

ARZ004-005-016-211600-
NORTH CENTRAL ARKANSAS

CITY           SKY/WX    TMP DP  RH WIND       PRES   REMARKS
BATESVILLE     CLOUDY    41  32  70 SE6       30.20R
FLIPPIN        CLOUDY    39  34  81 CALM      30.15S
MTN HOME       CLOUDY    38  34  85 SE7       30.15F FOG
$$

ARZ040-041-211600-
WEST CENTRAL ARKANSAS

CITY           SKY/WX    TMP DP  RH WIND       PRES   REMARKS
MENA           CLOUDY    43  39  87 E3        30.14F
MOUNT IDA      CLOUDY    41  38  89 CALM      30.13S
$$

ARZ009-017-025-026-028-211600-
NORTHEAST ARKANSAS

CITY           SKY/WX    TMP DP  RH WIND       PRES   REMARKS
CORNING        FAIR      39  32  75 E13       30.20F
JONESBORO      CLOUDY    38  34  85 E8        30.20F
NEWPORT        CLOUDY    41  34  76 E7        30.21F
WALNUT RIDGE   CLOUDY    39  30  70 S5        30.20S
BLYTHEVILLE    CLOUDY    37  32  82 E7        30.23F
$$

ARZ022-023-033-042-044-211600-
CENTRAL ARKANSAS

CITY           SKY/WX    TMP DP  RH WIND       PRES   REMARKS
LITTLE ROCK    PTSUNNY   40  35  83 E6        30.20F
N LITTLE ROCK  PTSUNNY   40  36  87 E8        30.20F
JACKSONVILLE   MOSUNNY   39  35  88 E5        30.19
SEARCY         CLOUDY    41  35  79 E3        30.22S
HOT SPRINGS    PTSUNNY   38  37  97 SE3       30.18R FOG
RUSSELLVILLE   CLOUDY    41  34  76 E6        30.17F
CLINTON        CLOUDY    41  36  81 CALM      30.21R
$$

ARZ036-211600-
EAST ARKANSAS

CITY           SKY/WX    TMP DP  RH WIND       PRES   REMARKS
WEST MEMPHIS   CLOUDY    38  33  82 E3        30.22R
$$

ARZ050-053-066-070-073-211600-
SOUTHWEST ARKANSAS

CITY           SKY/WX    TMP DP  RH WIND       PRES   REMARKS
ARKADELPHIA    PTSUNNY   39  39 100 NE5       30.20S FOG
CAMDEN         SUNNY     37  36  93 MISG      30.17F FOG
TEXARKANA      CLOUDY    38  37  97 VRB5      30.15F FOG
EL DORADO      SUNNY     38  36  92 NE6       30.15F FOG
DE QUEEN       CLOUDY    43  38  82 E6        30.14F HAZE
$$

ARZ056-057-069-211600-
SOUTHEAST ARKANSAS

CITY           SKY/WX    TMP DP  RH WIND       PRES   REMARKS
PINE BLUFF     MOSUNNY   39  36  89 NE3       30.20S
STUTTGART      MOSUNNY   39  34  81 E7        30.21S
MONTICELLO     MOSUNNY   40  36  86 NE5       30.18S

$$





USA.gov is the U.S. government's official web portal to all federal, state and local government web resources and services.